User: anonymous   Login
Location: Camp Creek
(33.9000°N, 111.8167°W)
Time: 20:00:57
(UTC-07:00)
Language:

Cosmos 1656 - Orbit

View from above orbital plane
View from above orbital plane
View from above satellite
View from above satellite

Ground track
Ground track

The orbit data is extracted from the following two-line orbital elements,

1 15755U 85042A   17023.82534025  .00000026  00000-0  34164-4 0  9994
2 15755  71.1129 307.3869 0037762 275.1549  84.5268 14.20402890640193
Epoch (UTC): 23 January 2017 19:48:29
Eccentricity: 0.0037762
inclination: 71.1129°
perigee height: 797 km
apogee height: 851 km
right ascension of ascending node: 307.3869°
argument of perigee: 275.1549°
revolutions per day: 14.20402890
mean anomaly at epoch: 84.5268°
orbit number at epoch: 64019

The dashed part of the orbit path shows where the satellite is in the earth's shadow,  

DLR